Location: Praha
(50.0830°N, 14.4670°E)
Time: 22:04:44
(UTC+02:00)

ISS - Pass Details

Date: 10 May 2021
Orbit: 418 x 421 km, 51.6° (Epoch: 07 May)

Event Time Altitude Azimuth Distance (km) Brightness Sun altitude
Rises 04:23:32 0° 285° (WNW) 2,371 -0.3 -8.6°
Reaches altitude 10° 04:25:38 10° 285° (WNW) 1,506 -1.3 -8.4°
Maximum altitude 04:29:01 87° 11° (N) 427 -3.7 -8.0°
Drops below altitude 10° 04:32:24 10° 105° (ESE) 1,504 -0.4 -7.6°
Sets 04:34:30 0° 106° (ESE) 2,367 0.6 -7.3°
